KE7JL Weather Reports


time (UTC)temp
F
wind
direction
speed
knots
gust
knots
rain 1hr
in
rain 24hr
in
rain mn
in
humidity
%
barometer
mb
20260503223340 75 333 0.0 0.0 0.00 0.00 0.00 54 1009.6
20260503220356 76 332 0.0 0.0 0.00 0.00 0.00 52 1010.0
20260503213343 73 284 0.0 0.0 0.00 0.00 0.00 56 1010.2
20260503210359 71 273 0.0 0.0 0.00 0.00 0.00 61 1010.5
20260503203347 72 262 0.0 0.0 0.00 0.00 0.00 59 1010.8
20260503200349 73 236 0.0 0.0 0.00 0.00 0.00 52 1011.1
20260503193343 72 318 0.0 0.0 0.00 0.00 0.00 52 1011.7
20260503190408 71 360 0.0 0.0 0.00 0.00 0.00 54 1012.0
20260503183338 71 15 0.0 0.0 0.00 0.00 0.00 55 1012.4
20260503180420 67 218 0.0 0.0 0.00 0.00 0.00 66 1012.5
20260503173336 70 355 0.0 0.0 0.00 0.00 0.00 60 1012.7
20260503170405 68 355 0.0 0.0 0.00 0.00 0.00 64 1013.0
20260503150408 57 82 0.0 0.0 0.00 0.00 0.00 88 1013.5
20260503130352 51 82 0.0 0.0 0.00 0.00 0.00 91 1013.2
20260503110350 54 96 0.0 0.0 0.00 0.00 0.00 86 1013.4
20260503090351 56 37 0.0 0.0 0.00 0.00 0.00 82 1013.5
20260503080357 57 17 0.0 0.0 0.00 0.00 0.00 78 1013.5
20260503070351 58 14 0.0 0.0 0.00 0.00 0.00 76 1013.3
20260503053337 62 12 0.0 0.0 0.00 0.00 0.00 67 1013.1
20260503050355 63 12 0.0 0.0 0.00 0.00 0.00 66 1013.1
20260503043359 64 11 0.0 0.0 0.00 0.00 0.00 65 1012.8
20260503040349 66 11 0.0 0.0 0.00 0.00 0.00 62 1012.5
20260503033330 68 11 0.0 0.0 0.00 0.00 0.00 60 1012.0
20260503030403 72 10 0.0 0.0 0.00 0.00 0.00 47 1011.8
20260503023344 73 15 0.0 0.0 0.00 0.00 0.00 47 1011.6
20260503020406 73 360 0.0 0.0 0.00 0.00 0.00 52 1011.6
20260503013346 73 324 0.0 0.0 0.00 0.00 0.00 52 1011.7
20260503010429 73 339 0.0 0.0 0.00 0.00 0.00 60 1011.5
20260503003335 72 355 0.0 0.0 0.00 0.00 0.00 59 1011.7
20260503000400 73 303 0.0 0.0 0.00 0.00 0.00 57 1011.8
20260502233336 74 360 0.0 0.0 0.00 0.00 0.00 55 1012.1
20260502230357 72 34 0.0 0.0 0.00 0.00 0.00 55 1012.6